Location: Byszew
(52.1813°N, 19.2693°E)
Time: 01:12:02
(UTC+00:00)

Envisat - Pass Details

Date: 02 February 2022
Orbit: 764 x 765 km, 98.2° (Epoch: 28 May)

Event Time Altitude Azimuth Distance (km) Brightness Sun altitude
Rises 16:17:59 0° 222° (SW) 3,222 7.4 -7.4°
Reaches altitude 10° 16:21:43 10° 250° (WSW) 2,302 7.2 -7.9°
Maximum altitude 16:23:55 13° 276° (W) 2,120 6.5 -8.2°
Drops below altitude 10° 16:26:07 10° 302° (WNW) 2,310 6.1 -8.6°
Sets 16:29:54 0° 331° (NNW) 3,243 6.4 -9.1°
